Content
SEND FEEDBACK

Daily
Averages
Monthly
Summary
United States of America

MELBOURNE, FLORIDA


Home > North America > United States > Florida
Elevation: 26 feet     Latitude: 28 06N     Longitude: 080 38W

WEATHER
 
SELECT A DAY
Number of Records: 191,188;   Date Range: 1/1/95 - 11/26/14
 
SHARE

PRINT THIS DATA

[ ← Previous Day ]
WEATHER ALMANAC - JANUARY 3, 2013
[ Next Day → ]
[ °C ]   °F
Weather ElementAverageHighLow
Temperature63.7 °F73 °F (2:53 pm)57 °F (5:53 am)
Dewpoint61.8 °F66.2 °F (2:15 pm)57 °F (5:53 am)
Humidity94 %100 % (1:53 am)73 % (3:53 pm)
Barometer30.09 in30.17 in (9:48 pm)30.04 in (2:53 am)
Wind Speed5 mph15 mph (5:53 pm)
Weather ElementAverage
Visibility5.8 mi
Wind DirectionSSE (170.7 °)

Weather ElementTotal
Precipitation---
Growing Degree Days15 (Base 50)
Averaged from 43 records on January 3, 2013
WEATHER CONDITIONS BREAKOUT
WIND DIRECTION BREAKOUT
WEATHER BY HOUR - JANUARY 3, 2013
[ °C ]   °F
Local TimeTemperatureDewpointHumidityBarometerVisibilityWind DirectionWind SpeedGust SpeedPrecipitationEventsConditions
1:53 AM62.1 °F62.1 °F100 %30.05 in6.0 miWest (280°)3.5 mphClear
2:53 AM62.1 °F62.1 °F100 %30.04 in8.0 miCalmClear
3:12 AM60.8 °F60.8 °F100 %30.05 in2.5 miCalmClear
3:28 AM60.8 °F60.8 °F100 %30.04 in1.5 miCalmClear
3:32 AM60.8 °F60.8 °F100 %30.04 in3.0 miCalmClear
3:53 AM61.0 °F60.1 °F97 %30.04 in7.0 miCalmClear
4:04 AM59.0 °F59.0 °F100 %30.04 in2.0 miCalmClear
4:17 AM57.2 °F57.2 °F100 %30.05 in6.0 miCalmPartly Cloudy
4:53 AM59.0 °F57.9 °F96 %30.04 in8.0 miCalmMostly Cloudy
5:53 AM57.0 °F57.0 °F100 %30.05 in9.0 miCalmClear
6:03 AM57.2 °F57.2 °F100 %30.05 in1.5 miCalmPartly Cloudy
6:10 AM57.2 °F57.2 °F100 %30.05 in5.0 miWest (270°)4.6 mphPartly Cloudy
6:39 AM57.2 °F57.2 °F100 %30.06 in1.5 miWNW (290°)4.6 mphScattered Clouds
6:43 AM57.2 °F57.2 °F100 %30.06 in0.8 miWest (280°)4.6 mphMist
6:53 AM57.0 °F57.0 °F100 %30.07 in0.5 miWest (280°)6.9 mphFogFog
7:03 AM57.2 °F57.2 °F100 %30.07 in0.2 miWest (270°)4.6 mphFogFog
7:53 AM59.0 °F59.0 °F100 %30.09 in0.2 miWest (260°)3.5 mphFogFog
8:03 AM60.8 °F60.8 °F100 %30.09 in0.2 miCalmFogFog
8:53 AM62.1 °F62.1 °F100 %30.10 in0.2 miWest (280°)4.6 mphFogFog
9:35 AM62.6 °F62.6 °F100 %30.12 in0.2 miWNW (290°)3.5 mphFogFog
9:53 AM64.0 °F64.0 °F100 %30.12 in0.2 miWest (280°)4.6 mphFogFog
10:26 AM64.4 °F64.4 °F100 %30.12 in0.5 miWest (280°)3.5 mphFogFog
10:40 AM64.4 °F64.4 °F100 %30.12 in1.5 miWNW (300°)3.5 mphOvercast
10:53 AM64.0 °F64.0 °F100 %30.11 in2.0 miCalmOvercast
11:16 AM64.4 °F64.4 °F100 %30.11 in6.0 miCalmOvercast
11:45 AM69.8 °F64.4 °F83 %30.11 in10.0 miVariable3.5 mphOvercast
11:53 AM70.0 °F66.0 °F87 %30.10 in10.0 miCalmMostly Cloudy
12:07 PM69.8 °F64.4 °F83 %30.09 in9.0 miENE (60°)6.9 mphMostly Cloudy
12:53 PM70.0 °F64.0 °F81 %30.07 in8.0 miNNE (20°)6.9 mphMostly Cloudy
1:53 PM71.1 °F64.9 °F81 %30.05 in10.0 miNorth (360°)9.2 mphMostly Cloudy
2:15 PM71.6 °F66.2 °F83 %30.05 in10.0 miNorth (10°)9.2 mphScattered Clouds
2:53 PM73.0 °F64.9 °F76 %30.06 in10.0 miNorth (360°)8.1 mphPartly Cloudy
3:53 PM73.0 °F64.0 °F73 %30.06 in10.0 miNorth (360°)10.4 mphClear
4:53 PM70.0 °F64.9 °F84 %30.08 in10.0 miNorth (10°)11.5 mphMostly Cloudy
5:53 PM68.0 °F64.0 °F87 %30.09 in10.0 miNorth (360°)15.0 mphOvercast
6:17 PM66.2 °F64.4 °F94 %30.10 in10.0 miNorth (10°)15.0 mphOvercast
6:53 PM66.0 °F63.0 °F90 %30.12 in10.0 miNorth (360°)15.0 mphOvercast
7:53 PM64.9 °F62.1 °F90 %30.14 in10.0 miNorth (360°)9.2 mphOvercast
8:53 PM64.9 °F63.0 °F93 %30.15 in10.0 miNorth (350°)8.1 mphOvercast
9:48 PM66.2 °F62.6 °F88 %30.17 in10.0 miNNW (330°)9.2 mphOvercast
9:53 PM66.0 °F63.0 °F90 %30.17 in10.0 miNW (320°)9.2 mph0.00 inRainLight Rain
10:53 PM64.9 °F63.0 °F93 %30.16 in10.0 miNorth (360°)8.1 mph0.00 inOvercast
11:53 PM64.9 °F63.0 °F93 %30.16 in10.0 miNorth (350°)9.2 mphOvercast
Hourly data recorded from KMLB, located miles away from Melbourne, Florida







STORIES FROM OUR PARTNERS